Flag for Germany Weather past 2 weeks in Dortmund, North Rhine-Westphalia, Germany

Now
48 °F

Overcast.


Feels Like: 48 °F
Forecast: 51 / 62 °F
Wind: 1 mph from Northeast

Location: Duesseldorf

Current Time: May 27, 2015 at 4:45:22 AM

Latest Report: May 27, 2015 at 4:00 AM


Visibility: 28 mi

Pressure: 30.27 "Hg

Humidity: 82%

Dew point: 43 °F

Location of DortmundLocation

Historic Weather in Dortmund — Graph

°F

Dortmund temperature yesterday

Maximum temperature yesterday: 58 °F (at 6:00 PM)
Minimum temperature yesterday: 49 °F (at 7:00 AM)
Average temperature yesterday: 54 °F

Past Weeks' High & Low Weather Summary

 TemperatureHumidityPressure
High70 °F (May 12, 3:00 PM)99% (May 17, 2:00 AM)30.34 "Hg (May 17, 2:00 AM)
Low38 °F (May 21, 4:00 AM)36% (May 13, 4:00 PM)29.65 "Hg (May 18, 8:00 PM)
Average55 °F66%30.07 "Hg
* Reported May 12 3:00 AM — May 27 3:00 AM, Dortmund, Weather by CustomWeather, © 2015

Note: Actual official high and low records may vary slightly from our data, if they occured in-between our weather recording intervals... More about our weather records

Advertising

Dortmund weather history for previous 24 hours

 ConditionsComfort  
Time TempWeatherWind HumidityBarometerVisibility
3:00 AM
Wed, May 27
47 °FOvercast.1 mph86%30.26 "Hg28 mi
2:00 AM51 °FOvercast.2 mph71%30.26 "Hg28 mi
1:00 AM50 °FOvercast.2 mph72%30.26 "Hg28 mi
12:00 AM49 °FPassing clouds.2 mph74%30.25 "Hg28 mi
11:00 PM
Tue, May 26
50 °FPassing clouds.3 mph70%30.24 "Hg28 mi
10:00 PM51 °FPassing clouds.3 mph69%30.23 "Hg28 mi
9:00 PM54 °FPartly sunny.3 mph59%30.22 "Hg31 mi
8:00 PM55 °FPartly sunny.5 mph55%30.20 "Hg31 mi
7:00 PM58 °FPartly sunny.7 mph49%30.18 "Hg31 mi
6:00 PM58 °FPartly sunny.6 mph47%30.16 "Hg31 mi
5:00 PM57 °FOvercast.6 mph50%30.16 "Hg31 mi
4:00 PM56 °FOvercast.6 mph55%30.15 "Hg31 mi
3:00 PM58 °FOvercast.6 mph56%30.15 "Hg31 mi
2:00 PM52 °FOvercast.5 mph69%30.16 "Hg31 mi
1:00 PM56 °FOvercast.5 mph53%30.14 "Hg31 mi
12:00 PM54 °FOvercast.6 mph56%30.14 "Hg31 mi
10:00 AM54 °FOvercast.5 mph60%30.13 "Hg31 mi
9:00 AM52 °FOvercast.5 mph66%30.12 "Hg31 mi
8:00 AM50 °FOvercast.3 mph79%30.11 "Hg28 mi
7:00 AM49 °FOvercast.3 mph80%30.10 "Hg25 mi
4:00 AM50 °FOvercast.5 mph76%30.06 "Hg22 mi
Weather by CustomWeather, © 2015

See weather overviewHow to use our weather pages